DW9353 Weather Reports


time (UTC)temp
C
wind
direction
speed
KPH
gust
KPH
rain 1hr
cm
rain 24hr
cm
rain mn
cm
humidity
%
barometer
mb
20260507070504 10 270 3.2 8.0 0.00 0.58 0.00 90 1005.8
20260507070008 10 289 1.6 9.7 0.00 0.58 0.00 90 1005.6
20260507065003 10 332 1.6 17.7 0.00 0.58 0.00 90 1005.2
20260507064503 10 320 1.6 17.7 0.00 0.58 0.00 90 1005.4
20260507064003 10 314 1.6 11.3 0.00 0.58 0.00 91 1005.6
20260507063504 10 290 1.6 9.7 0.00 0.58 0.00 91 1005.3
20260507062004 10 294 1.6 11.3 0.00 0.58 0.00 91 1005.0
20260507061503 10 284 1.6 11.3 0.00 0.58 0.00 91 1005.1
20260507060504 10 290 0.0 6.4 0.00 0.58 0.00 93 1005.4
20260507060004 10 328 0.0 4.8 0.00 0.58 0.00 94 1005.5
20260507055503 10 333 0.0 4.8 0.00 0.58 0.00 94 1005.4
20260507055003 10 302 0.0 6.4 0.00 0.58 0.00 94 1005.4
20260507054503 10 299 0.0 6.4 0.00 0.58 0.00 94 1005.7
20260507054004 10 297 0.0 3.2 0.00 0.58 0.00 94 1005.6
20260507053005 11 233 0.0 8.0 0.00 0.58 0.00 94 1005.5
20260507052503 11 231 0.0 4.8 0.00 0.58 0.00 95 1005.4
20260507052004 11 264 1.6 4.8 0.00 0.58 0.00 94 1005.6
20260507051004 11 284 1.6 4.8 0.00 0.58 0.00 94 1005.5
20260507050504 11 303 0.0 8.0 0.00 0.58 0.00 94 1005.4
20260507050005 11 307 1.6 9.7 0.00 0.58 0.00 94 1005.1
20260507045503 11 307 1.6 9.7 0.00 0.58 0.00 94 1005.0
20260507045003 11 307 0.0 9.7 0.00 0.58 0.00 94 1005.3
20260507044503 11 336 0.0 4.8 0.00 0.58 0.00 94 1005.3
20260507044004 11 327 1.6 11.3 0.00 0.58 0.00 94 1005.4
20260507043503 11 320 1.6 12.9 0.00 0.58 0.00 94 1005.3
20260507043003 11 303 1.6 12.9 0.00 0.58 0.00 93 1005.4
20260507042503 11 238 0.0 4.8 0.00 0.58 0.00 95 1005.6
20260507042004 12 237 0.0 4.8 0.00 0.58 0.00 95 1005.6
20260507041504 12 231 1.6 6.4 0.00 0.58 0.00 95 1005.6
20260507041004 12 239 1.6 6.4 0.00 0.58 0.00 95 1005.6
20260507040503 12 277 0.0 3.2 0.00 0.58 0.00 95 1005.2
20260507040005 12 283 0.0 4.8 0.00 0.58 0.00 95 1005.1
20260507035503 12 286 0.0 4.8 0.03 0.58 0.58 95 1005.1
20260507035003 12 250 1.6 6.4 0.03 0.58 0.58 95 1004.9
20260507034503 12 238 1.6 6.4 0.03 0.58 0.58 94 1004.9
20260507034004 13 278 1.6 14.5 0.03 0.58 0.58 94 1004.8
20260507033503 13 286 3.2 14.5 0.03 0.58 0.58 94 1004.6
20260507033003 13 302 3.2 20.9 0.03 0.58 0.58 94 1004.7
20260507032504 13 305 3.2 20.9 0.03 0.58 0.58 94 1004.5
20260507032003 13 297 1.6 11.3 0.03 0.58 0.58 95 1004.6
20260507031504 14 317 1.6 8.0 0.03 0.58 0.58 95 1004.7
20260507030503 15 285 3.2 11.3 0.03 0.58 0.58 96 1004.5
20260507030004 15 270 1.6 11.3 0.03 0.58 0.58 97 1004.4
20260507025503 15 315 1.6 6.4 0.00 0.56 0.56 97 1004.2
20260507025003 15 269 1.6 6.4 0.00 0.56 0.56 97 1004.1
20260507024504 15 243 1.6 8.0 0.00 0.56 0.56 97 1004.1
20260507024004 15 230 1.6 8.0 0.00 0.56 0.56 97 1004.0
20260507023004 15 231 1.6 12.9 0.00 0.56 0.56 96 1003.9
20260507021503 15 229 3.2 12.9 0.00 0.56 0.56 96 1003.8
20260507021004 15 240 3.2 12.9 0.00 0.56 0.56 96 1003.8
20260507020503 15 242 3.2 12.9 0.00 0.56 0.56 96 1003.7
20260507020004 15 225 3.2 12.9 0.00 0.56 0.56 96 1003.9
20260507015503 15 203 1.6 12.9 0.00 0.56 0.56 96 1003.9
20260507015004 15 200 1.6 12.9 0.00 0.56 0.56 96 1004.0
20260507014503 15 208 3.2 9.7 0.00 0.56 0.56 96 1004.0
20260507014004 15 226 3.2 9.7 0.00 0.56 0.56 96 1004.0
20260507013503 15 253 3.2 12.9 0.00 0.56 0.56 96 1004.0
20260507013005 15 251 3.2 14.5 0.00 0.56 0.56 96 1004.0
20260507012503 15 221 3.2 14.5 0.00 0.56 0.56 96 1004.0
20260507012004 15 214 1.6 11.3 0.00 0.56 0.56 97 1003.9
20260507011003 15 243 3.2 11.3 0.00 0.56 0.56 96 1004.0
20260507010503 15 229 3.2 11.3 0.00 0.56 0.56 96 1004.1
20260507010004 15 219 1.6 9.7 0.00 0.56 0.56 96 1004.1
20260507005503 15 239 1.6 9.7 0.00 0.56 0.56 96 1004.1
20260507005004 15 231 3.2 11.3 0.00 0.56 0.56 96 1004.1
20260507004503 15 237 3.2 12.9 0.00 0.56 0.56 96 1004.0
20260507003504 15 249 3.2 16.1 0.03 0.56 0.56 96 1003.8
20260507003004 15 233 3.2 16.1 0.03 0.56 0.56 96 1003.8
20260507002504 15 214 3.2 14.5 0.03 0.56 0.56 97 1003.9
20260507002004 15 210 1.6 11.3 0.05 0.56 0.56 96 1003.8
20260507001503 15 206 3.2 11.3 0.08 0.56 0.56 96 1003.7
20260507001004 15 219 3.2 11.3 0.08 0.56 0.56 97 1003.7
20260507000503 15 228 1.6 9.7 0.10 0.56 0.56 97 1003.8
20260507000004 15 219 3.2 9.7 0.13 0.56 0.56 96 1003.8
20260506235503 15 227 3.2 14.5 0.13 0.56 0.56 96 1003.8
20260506235004 15 243 1.6 14.5 0.13 0.56 0.56 96 1003.7
20260506234503 15 248 1.6 6.4 0.13 0.56 0.56 96 1003.6
20260506233503 15 242 1.6 14.5 0.10 0.53 0.53 96 1003.7
20260506233004 15 247 1.6 14.5 0.10 0.53 0.53 96 1003.7
20260506232503 15 248 1.6 9.7 0.10 0.53 0.53 96 1003.7
20260506232004 15 233 1.6 8.0 0.10 0.51 0.51 96 1003.8
20260506231503 15 225 1.6 8.0 0.08 0.48 0.48 96 1003.9
20260506231004 15 208 1.6 8.0 0.10 0.48 0.48 96 1003.9
20260506230503 15 199 1.6 12.9 0.08 0.46 0.46 96 1004.1
20260506230003 15 207 1.6 12.9 0.08 0.43 0.43 96 1004.1
20260506225504 15 224 1.6 11.3 0.10 0.43 0.43 96 1004.0
20260506225003 15 259 3.2 11.3 0.10 0.43 0.43 95 1004.0
20260506224504 15 219 3.2 12.9 0.10 0.43 0.43 95 1004.0
20260506224004 15 226 3.2 12.9 0.13 0.43 0.43 95 1004.0
20260506223504 15 262 1.6 12.9 0.13 0.43 0.43 96 1004.1
20260506223004 15 243 1.6 12.9 0.13 0.43 0.43 96 1004.1
20260506222503 15 238 1.6 12.9 0.15 0.43 0.43 95 1004.2
20260506222004 15 247 1.6 6.4 0.13 0.41 0.41 95 1004.2
20260506221504 15 218 1.6 6.4 0.10 0.38 0.38 96 1004.3
20260506221004 15 201 1.6 9.7 0.10 0.38 0.38 96 1004.2
20260506220503 15 210 1.6 12.9 0.10 0.38 0.38 95 1004.4
20260506220004 15 239 1.6 12.9 0.08 0.36 0.36 95 1004.3
20260506215503 15 260 1.6 12.9 0.08 0.33 0.33 95 1004.3
20260506215004 15 221 3.2 14.5 0.08 0.33 0.33 95 1004.4
20260506214503 15 210 3.2 14.5 0.08 0.30 0.30 94 1004.4
20260506214004 15 214 3.2 14.5 0.08 0.30 0.30 95 1004.5
20260506213503 15 194 3.2 14.5 0.08 0.30 0.30 94 1004.5
20260506213004 15 209 3.2 17.7 0.08 0.30 0.30 94 1004.5
20260506212503 15 241 3.2 17.7 0.08 0.28 0.28 94 1004.5
20260506212004 15 246 1.6 11.3 0.10 0.28 0.28 94 1004.6
20260506211503 16 232 3.2 19.3 0.10 0.28 0.28 94 1004.7
20260506211004 16 222 3.2 19.3 0.10 0.28 0.28 94 1004.8
20260506210503 16 218 4.8 14.5 0.13 0.28 0.28 93 1004.8
20260506210004 16 234 4.8 30.6 0.13 0.28 0.28 94 1004.8
20260506204004 16 193 1.6 9.7 0.08 0.23 0.23 94 1004.9
20260506203503 16 197 1.6 9.7 0.08 0.23 0.23 94 1004.9
20260506203004 16 215 1.6 9.7 0.08 0.23 0.23 93 1004.9
20260506202503 16 262 1.6 4.8 0.08 0.20 0.20 93 1004.9
20260506202004 16 250 1.6 8.0 0.05 0.18 0.18 93 1004.9
20260506201004 16 212 1.6 11.3 0.08 0.18 0.18 92 1004.9
20260506200503 16 231 1.6 11.3 0.05 0.15 0.15 93 1004.9
20260506200004 17 202 0.0 6.4 0.08 0.15 0.15 93 1004.9
20260506195503 17 193 0.0 6.4 0.08 0.15 0.15 93 1004.9
20260506194503 17 147 0.0 3.2 0.10 0.15 0.15 94 1004.8
20260506194003 17 202 1.6 8.0 0.10 0.15 0.15 93 1004.9
20260506193003 17 204 0.0 9.7 0.13 0.15 0.15 93 1004.7
20260506192504 17 213 0.0 1.6 0.10 0.13 0.13 94 1004.8
20260506192004 17 213 0.0 1.6 0.10 0.13 0.13 93 1004.9
20260506191004 17 218 0.0 3.2 0.10 0.10 0.10 91 1005.1
20260506190503 17 251 0.0 1.6 0.10 0.10 0.10 90 1005.3
20260506190004 17 251 0.0 1.6 0.08 0.08 0.08 90 1005.4
20260506185503 18 251 0.0 1.6 0.08 0.08 0.08 89 1005.3
20260506185004 18 250 0.0 1.6 0.08 0.08 0.08 87 1005.3
20260506184504 18 248 0.0 3.2 0.05 0.05 0.05 85 1005.5
20260506184004 18 251 1.6 12.9 0.05 0.05 0.05 83 1005.5
20260506183005 20 250 3.2 14.5 0.03 0.03 0.03 76 1005.5
20260506181503 21 239 6.4 22.5 0.03 0.03 0.03 65 1005.1
20260506181004 21 244 8.0 33.8 0.00 0.00 0.00 64 1005.2
20260506180503 21 248 6.4 33.8 0.00 0.00 0.00 61 1005.1
20260506180004 22 234 4.8 20.9 0.00 0.00 0.00 58 1005.3
20260506175504 22 219 6.4 20.9 0.00 0.00 0.00 58 1005.2
20260506175003 22 214 4.8 20.9 0.00 0.00 0.00 57 1005.2
20260506174504 22 214 4.8 16.1 0.00 0.00 0.00 57 1005.1
20260506174004 22 218 6.4 16.1 0.00 0.00 0.00 57 1005.1
20260506173503 22 238 6.4 27.4 0.00 0.00 0.00 56 1005.2
20260506173004 22 246 8.0 27.4 0.00 0.00 0.00 56 1005.2
20260506172503 22 227 6.4 24.1 0.00 0.00 0.00 56 1005.2
20260506171003 22 243 4.8 16.1 0.00 0.00 0.00 57 1005.4
20260506170504 22 218 4.8 16.1 0.00 0.00 0.00 56 1005.5
20260506170004 22 173 4.8 16.1 0.00 0.00 0.00 58 1005.5
20260506165503 22 198 6.4 16.1 0.00 0.00 0.00 57 1005.7
20260506165004 22 228 4.8 14.5 0.00 0.00 0.00 58 1005.6
20260506164504 22 234 4.8 17.7 0.00 0.00 0.00 58 1005.8
20260506164004 22 262 6.4 22.5 0.00 0.00 0.00 60 1005.8
20260506163503 22 261 6.4 22.5 0.00 0.00 0.00 58 1005.8
20260506163004 22 249 3.2 17.7 0.00 0.00 0.00 60 1005.9
20260506162503 22 250 3.2 17.7 0.00 0.00 0.00 61 1006.0
20260506161504 22 246 4.8 19.3 0.00 0.00 0.00 61 1006.2
20260506160503 21 225 3.2 12.9 0.00 0.00 0.00 61 1006.5
20260506160004 21 236 4.8 19.3 0.00 0.00 0.00 62 1006.7
20260506155503 21 244 4.8 22.5 0.00 0.00 0.00 62 1006.7
20260506154503 21 253 8.0 27.4 0.00 0.00 0.00 61 1006.9
20260506154004 21 231 6.4 20.9 0.00 0.00 0.00 61 1007.1
20260506153503 21 217 3.2 14.5 0.00 0.00 0.00 62 1007.2
20260506152504 22 233 6.4 24.1 0.00 0.00 0.00 62 1007.1
20260506152004 21 227 6.4 24.1 0.00 0.00 0.00 63 1007.2
20260506151003 21 208 3.2 12.9 0.00 0.00 0.00 64 1007.1
20260506150504 21 208 3.2 17.7 0.00 0.00 0.00 65 1007.1
20260506150005 21 212 4.8 17.7 0.00 0.00 0.00 65 1007.4
20260506145503 21 227 8.0 25.7 0.00 0.00 0.00 64 1007.4
20260506145004 21 239 6.4 25.7 0.00 0.00 0.00 66 1007.4
20260506144503 21 248 4.8 22.5 0.00 0.00 0.00 66 1007.2
20260506144003 21 236 4.8 22.5 0.00 0.00 0.00 67 1007.2
20260506143503 21 217 4.8 17.7 0.00 0.00 0.00 67 1007.2
20260506143004 20 211 4.8 17.7 0.00 0.00 0.00 67 1007.3
20260506142503 21 223 4.8 16.1 0.00 0.00 0.00 67 1007.3
20260506142004 20 242 3.2 12.9 0.00 0.00 0.00 69 1007.1
20260506141503 20 238 4.8 19.3 0.00 0.00 0.00 69 1006.9
20260506140503 20 249 4.8 17.7 0.00 0.00 0.00 70 1007.2
20260506140004 19 278 3.2 12.9 0.00 0.00 0.00 71 1007.2
20260506135503 19 251 4.8 19.3 0.00 0.00 0.00 72 1007.1
20260506135004 18 220 4.8 19.3 0.00 0.00 0.00 72 1007.3
20260506134004 18 236 4.8 17.7 0.00 0.00 0.00 72 1007.4
20260506133503 18 233 4.8 17.7 0.00 0.00 0.00 72 1007.6
20260506133003 18 228 4.8 24.1 0.00 0.00 0.00 73 1007.6
20260506132503 18 223 4.8 24.1 0.00 0.00 0.00 73 1007.6
20260506132004 18 229 6.4 17.7 0.00 0.00 0.00 73 1007.6
20260506131503 18 229 4.8 12.9 0.00 0.00 0.00 73 1007.6
20260506131003 18 226 3.2 11.3 0.00 0.00 0.00 73 1007.6
20260506130005 18 251 6.4 20.9 0.00 0.00 0.00 73 1007.7
20260506125004 18 244 4.8 14.5 0.00 0.00 0.00 74 1007.8
20260506124004 18 244 4.8 16.1 0.00 0.00 0.00 74 1007.5
20260506123503 18 238 4.8 16.1 0.00 0.00 0.00 74 1007.5
20260506123004 18 222 4.8 19.3 0.00 0.00 0.00 74 1007.6
20260506122503 18 231 4.8 19.3 0.00 0.00 0.00 74 1007.8
20260506121503 18 242 3.2 16.1 0.00 0.00 0.00 74 1007.8
20260506121003 17 256 3.2 12.9 0.00 0.00 0.00 76 1007.8
20260506120004 17 249 1.6 11.3 0.00 0.00 0.00 77 1007.9
20260506115503 17 242 1.6 11.3 0.00 0.00 0.00 76 1007.9
20260506115003 17 244 1.6 11.3 0.00 0.00 0.00 77 1008.0
20260506114504 17 245 1.6 11.3 0.00 0.00 0.00 77 1008.0
20260506114003 17 252 3.2 11.3 0.00 0.00 0.00 77 1008.0
20260506113503 17 231 3.2 14.5 0.00 0.00 0.00 77 1008.1
20260506113004 17 209 3.2 14.5 0.00 0.00 0.00 77 1008.1
20260506112504 16 215 3.2 16.1 0.00 0.00 0.00 77 1008.1
20260506112003 16 226 4.8 16.1 0.00 0.00 0.00 77 1008.2
20260506111503 16 235 3.2 16.1 0.00 0.00 0.00 78 1008.1
20260506111004 16 207 3.2 16.1 0.00 0.00 0.00 78 1008.0
20260506110503 16 179 1.6 16.1 0.00 0.00 0.00 78 1008.0
20260506105504 16 239 3.2 12.9 0.00 0.00 0.00 79 1008.3
20260506105004 16 223 3.2 12.9 0.00 0.00 0.00 79 1008.4
20260506104503 16 218 3.2 11.3 0.00 0.00 0.00 79 1008.3
20260506104003 16 224 3.2 8.0 0.00 0.00 0.00 79 1008.2
20260506103504 16 214 1.6 11.3 0.00 0.00 0.00 78 1008.1
20260506103004 16 216 3.2 11.3 0.00 0.00 0.00 78 1008.0
20260506102503 16 218 3.2 12.9 0.00 0.00 0.00 78 1008.1
20260506100503 16 245 1.6 14.5 0.00 0.00 0.00 78 1008.2
20260506100004 16 275 1.6 14.5 0.00 0.00 0.00 78 1008.2
20260506094503 16 205 1.6 8.0 0.00 0.00 0.00 78 1007.9
20260506094004 16 200 1.6 8.0 0.00 0.00 0.00 77 1007.9
20260506093503 16 194 3.2 8.0 0.00 0.00 0.00 77 1008.1
20260506093004 16 240 1.6 12.9 0.00 0.00 0.00 77 1008.2
20260506092503 16 257 3.2 12.9 0.00 0.00 0.00 77 1008.1
20260506092004 16 234 3.2 9.7 0.00 0.00 0.00 77 1008.1
20260506091503 16 217 1.6 9.7 0.00 0.00 0.00 76 1008.0
20260506091003 16 220 3.2 11.3 0.00 0.00 0.00 76 1008.0
20260506090504 16 236 3.2 16.1 0.00 0.00 0.00 76 1007.9
20260506090004 16 239 3.2 16.1 0.00 0.00 0.00 75 1008.0
20260506085504 16 229 3.2 14.5 0.00 0.00 0.00 75 1008.0
20260506085004 16 236 3.2 11.3 0.00 0.00 0.00 75 1008.0
20260506084503 16 248 3.2 14.5 0.00 0.00 0.00 75 1008.0
20260506084003 16 236 4.8 16.1 0.00 0.00 0.00 75 1008.0
20260506083503 16 237 3.2 16.1 0.00 0.00 0.00 74 1008.0
20260506083004 16 247 3.2 16.1 0.00 0.00 0.00 74 1008.0
20260506082503 16 240 3.2 16.1 0.00 0.00 0.00 74 1007.9
20260506081504 16 223 3.2 14.5 0.00 0.00 0.00 73 1007.9
20260506081004 16 230 1.6 11.3 0.00 0.00 0.00 73 1007.9
20260506080503 17 237 3.2 11.3 0.00 0.00 0.00 72 1007.9
20260506073504 17 261 3.2 12.9 0.00 0.00 0.00 71 1007.7
20260506073004 17 211 3.2 12.9 0.00 0.00 0.00 71 1007.7
20260506072003 17 239 3.2 12.9 0.00 0.00 0.00 70 1007.6
20260506071503 17 231 1.6 12.9 0.00 0.00 0.00 70 1007.5
20260506071004 17 233 1.6 8.0 0.00 0.00 0.00 70 1007.4